Regional Weather Roundup
Issued by NWS

Home | Current Version | Previous Version | Text Only | Print | Product List | Glossary On
Versions: 1 2 3 4 5 6 7 8 9 10 11 12 13 14 15 16 17 18 19 20 21 22 23 24 25 26 27 28 29 30 31 32 33 34 35 36 37 38 39 40 41 42 43 44 45 46 47 48 49 50
000
ASUS43 KFSD 031310
RWRSD

WEATHER ROUNDUP FOR SOUTH DAKOTA
NATIONAL WEATHER SERVICE SIOUX FALLS SD
800 AM CDT MON AUG 03 2015

NOTE: "FAIR" INDICATES FEW OR NO CLOUDS BELOW 12,000 FEET WITH NO
SIGNIFICANT WEATHER AND/OR OBSTRUCTIONS TO VISIBILITY.


SDZ001>005-009-010-012>017-031400-
NORTHWEST AND NORTH CENTRAL SOUTH DAKOTA

CITY           SKY/WX    TMP DP  RH WIND       PRES   REMARKS
BUFFALO          N/A     57  49  74 NE9       30.00R
FAITH            N/A     61  50  67 E3        30.04R
MOBRIDGE       SUNNY     61  59  93 CALM      30.00R
$$

SDZ012>016-024>037-041>051-057-063-072>074-031400-
SOUTHWEST AND SOUTH CENTRAL SOUTH DAKOTA

CITY           SKY/WX    TMP DP  RH WIND       PRES   REMARKS
RAPID CTY ARPT MOSUNNY   63  54  72 CALM      30.05R
PIERRE         SUNNY     61  55  81 CALM      30.00R
CUSTER         MOSUNNY   60  52  74 E5        30.16R
ELLSWORTH AFB  MOSUNNY   63  53  69 E2        30.05R
PHILIP         SUNNY     62  56  80 CALM      30.02R
PINE RIDGE     MOSUNNY   68  57  68 E10       30.03R
WINNER         FAIR      65  58  78 CALM      30.01R
$$

SDZ004>011-016>023-039-040-031400-
NORTHEAST SOUTH DAKOTA

CITY           SKY/WX    TMP DP  RH WIND       PRES   REMARKS
ABERDEEN       SUNNY     61  53  75 CALM      29.99R
WATERTOWN      SUNNY     61  57  87 N3        29.98R
BROOKINGS      SUNNY     61  55  82 CALM      30.01R
SISSETON         N/A     63  56  78 N3        29.95R
$$

SDZ017-020-022-023-036>040-048>070-031400-
SOUTHEAST SOUTH DAKOTA

CITY           SKY/WX    TMP DP  RH WIND       PRES   REMARKS
SIOUX FALLS    MOSUNNY   64  60  87 CALM      29.99R
HURON          SUNNY     60  57  89 CALM      29.99R
CHAMBERLAIN    PTSUNNY   63  59  88 CALM      30.01R FOG
MITCHELL       SUNNY     61  59  93 CALM      30.00R
YANKTON        SUNNY     63  61  94 CALM      29.99S
$$

ABBREVIATIONS USED IN REMARKS
   TC - TEMPERATURE IN CELSIUS
  WCI - WIND CHILL INDEX
   HX - HEAT INDEX
  VSB - VISIBILITY




USA.gov is the U.S. government's official web portal to all federal, state and local government web resources and services.